Погода в Могсохоне

Россия / Республика Бурятия     51°53′08″N   110°19′29″E
темп.,
°C
ветер,
м/с
пор.,
м/с
влажн.,
%
обл.,
%
осадки,
мм/ч
давл.,
гПа
погр.,
м
29 июня, ср
ср2923:00+20ююз115067 0.0 100211
02:00+19юв115058 0.0 100311
05:00+17юв116015 0.0 100311
08:00+26юз11373 0.0 1003329
11:00+32зюз32245 0.0 10021496
14:00+35з23177 0.0 10003489
17:00+28с683645 0.4 1002708
20:00+22з3458100 0.6 1005150
30 июня, чт
чт3023:00+18всв2278100 0.0 100538
02:00+16ююз118226 0.0 100611
05:00+15в118518 0.0 100513
08:00+23ююв115470 0.0 1005465
11:00+29ююз23330 0.0 10031533
14:00+33зюз34220 0.0 10012830
17:00+34юз13210 0.0 9992814
20:00+29ююз22311 0.0 99923
1 июля, пт
пт123:00+20ююз236213 0.3 100242
02:00+17ю11795 0.7 100313
05:00+16ю1187100 0.2 100412
08:00+21ююз2362100 0.2 1004355
11:00+27зюз2342100 0.0 10031049
14:00+32зюз143181 0.0 10002314
17:00+24вюв126289 0.9 1000359
20:00+20юв1481100 2.6 1002131
2 июля, сб
сб223:00+17вюв1193100 0.3 100311
02:00+15вюв11955 0.3 100311
05:00+15в11964 0.0 100313
08:00+20юв11755 0.0 1003346
11:00+29ю124179 0.0 1001977
14:00+33з23255 0.0 9982368
17:00+35в2220100 0.0 9962709
20:00+27сз1140100 0.2 99813
3 июля, вс
вс323:00+22ссв2259100 0.0 99919
02:00+19сз1169100 0.0 100013
05:00+17св117560 0.0 99915
08:00+24сз22514 0.0 999498
11:00+31з22330 0.0 9971423
14:00+33зюз44287 0.0 9952203
17:00+28з7844100 0.0 993906
20:00+16зюз1495100 30.6 998179